Location: Columbia
(38.9520°N, 92.3340°W)
Time: 22:14:38
(UTC-05:00)

SL-08 RB Rocket - Visible Passes

Search period start: 29 April 2017 00:00
Search period end: 09 May 2017 00:00
Orbit: 647 x 686 km, 98.0° (Epoch: 28 April)

Date Brightness Start Highest point End Pass type
(mag) Time Alt. Az. Time Alt. Az. Time Alt. Az.
29 Apr 5.1 21:33:13 21° E 21:34:03 22° ENE 21:37:30 10° NNE visible
29 Apr 5.1 23:11:21 33° W 23:11:21 33° W 23:15:01 10° NNW visible
30 Apr 4.1 22:05:09 44° E 22:05:29 45° ENE 22:09:49 10° N visible
30 Apr 6.1 23:43:17 16° W 23:43:17 16° W 23:45:31 10° NW visible
01 May 3.6 22:37:05 81° W 22:37:05 81° W 22:41:37 10° NNW visible
02 May 5.2 21:30:54 19° E 21:31:58 21° ENE 21:35:20 10° NNE visible
02 May 4.9 23:09:02 36° W 23:09:02 36° W 23:12:57 10° NNW visible
03 May 4.1 22:02:50 41° E 22:03:24 43° ENE 22:07:41 10° N visible
03 May 6.0 23:40:58 17° W 23:40:58 17° W 23:43:32 10° NW visible
04 May 3.5 22:34:46 81° SSW 22:34:57 86° WSW 22:39:31 10° NNW visible
05 May 5.3 21:28:34 17° E 21:29:54 20° ENE 21:33:08 10° NNE visible
05 May 4.7 23:06:42 38° W 23:06:42 38° W 23:10:53 10° NNW visible
06 May 4.2 22:00:31 37° E 22:01:19 41° ENE 22:05:33 10° N visible
06 May 5.9 23:38:39 17° W 23:38:39 17° W 23:41:32 10° NW visible
07 May 3.5 22:32:27 74° SSE 22:32:52 89° WSW 22:37:24 10° NNW visible
08 May 5.3 21:26:15 16° E 21:27:50 19° ENE 21:30:57 10° NNE visible
08 May 4.6 23:04:23 39° WSW 23:04:34 39° W 23:08:48 10° NNW visible
